TIME,DELAY(SENSOR),PRES,OXYGEN,RAWTEMP,T(OPTODE),TCPHASE,FLUOR,BETA(BETA700),BETA(BETA412),BETA(BETA440),CDOM,C(CSC),ED(ED411.90),ED(ED443.80),ED(ED489.40),ED(ED554.70),LU(LU412.20),LU(LU443.80),LU(LU489.40),LU(LU555.00),COMP,TILTX,TILTY,CHECK
1365632826,5806,865.5900268554688000,171.0352020263672000,456.8916015625000000,8.8610286712646480,39.0897789001464840,51,103,98,79,79,11422,2146962733,2147515958,2147290358,2147506578,2147081984,2146929188,2147713261,2147123611,2454,-1,8,11123
1365636422,5805,985.0000000000000000,210.0614013671875000,517.1524047851562000,6.9963550567626950,37.5947990417480500,53,102,97,80,81,11422,2146963510,2147519369,2147294948,2147515894,2147084214,2146920512,2147722742,2147123611,1029,-1,8,64863
1365640022,5805,1016.3499755859375000,227.5216979980468800,534.2706909179688000,6.4621977806091310,36.9148292541503900,53,101,98,79,81,11420,2146962605,2147521746,2147299392,2147518372,2147084324,2146920804,2147725056,2147118637,3155,0,8,60889
1365643622,5807,1019.9199829101562000,227.8638000488281200,537.1160278320312000,6.3732008934021000,36.9468498229980500,52,104,97,78,81,11419,2146963620,2147517485,2147299894,2147519277,2147084169,2146918445,2147722678,2147123931,758,-1,8,16358
1365647222,5803,1026.4300537109375000,230.2830047607422000,537.5181274414062000,6.3606219291687010,36.8242607116699200,52,100,98,80,81,11417,2146966253,2147520091,2147298870,2147518125,2147085129,2146922294,2147727808,2147121563,3007,0,8,39030
1365650822,5805,1025.9000244140625000,226.0139007568359400,538.6912841796875000,6.3239021301269530,37.0763893127441400,53,100,97,80,82,11418,2146962925,2147518866,2147300022,2147518290,2147086253,2146919771,2147727030,2147119597,3320,0,8,25290
1365654422,5807,1030.5699462890625000,230.2176971435547000,540.1052856445312000,6.2796378135681150,36.8745307922363300,52,102,97,79,81,11418,2146964032,2147520914,2147299264,2147517293,2147086966,2146914048,2147726445,2147119908,208,0,8,1655
1365658022,5805,1036.1700439453125000,233.7590026855468800,538.3489990234375000,6.3346180915832520,36.6548995971679700,52,100,98,80,81,11417,2146966281,2147518994,2147300681,2147516864,2147086710,2146919094,2147721892,2147123328,549,0,8,35072
1365661622,5805,1036.5500488281250000,231.7942047119140600,538.0200195312500000,6.3449149131774900,36.7533416748046900,52,98,99,79,80,11419,2146962093,2147519021,2147296987,2147514505,2147084562,2146916516,2147724626,2147122550,3485,0,8,46315
1365665222,5806,1026.3399658203125000,228.0894927978515600,537.1226806640625000,6.3729929924011230,36.9356307983398440,52,102,96,79,81,11411,2146961334,2147517421,2147299574,2147517540,2147085997,2146918948,2147728859,2147122404,102,0,8,64328
1365668822,5806,1028.9899902343750000,227.0767059326172000,536.3251953125000000,6.3979430198669430,36.9753990173339840,52,105,97,79,80,11415,2146960713,2147515456,2147300397,2147518921,2147086646,2146915428,2147726317,2147119872,3557,0,8,4406
1365672422,5809,1031.0699462890625000,225.2635040283203000,536.1093750000000000,6.4046921730041500,37.0701408386230500,53,99,96,80,81,11416,2146962560,2147520237,2147296786,2147517348,2147087670,2146915520,2147721417,2147122240,72,0,8,472
1365676022,5809,1029.0100097656250000,225.9960937500000000,536.0781250000000000,6.4056739807128910,37.0297203063964840,53,103,97,78,80,11415,2146961581,2147518802,2147295451,2147513261,2147084324,2146919890,2147726107,2147119853,97,0,8,37378
1365679622,5807,1027.8499755859375000,227.5045928955078000,536.1693725585938000,6.4028167724609375,36.9496612548828100,52,100,98,82,79,11416,2146963657,2147518729,2147297718,2147514313,2147086619,2146920393,2147727158,2147121691,280,-1,8,17111
1365683222,5803,1028.0899658203125000,229.4149017333984400,536.1998291015625000,6.4018650054931640,36.8476715087890600,51,101,96,80,81,11414,2146960859,2147517037,2147297344,2147518308,2147083620,2146920329,2147720804,2147120877,3086,0,8,39713
1365686822,5805,1029.0799560546875000,230.9355010986328000,536.4359741210938000,6.3944759368896480,36.7700004577636700,53,100,98,80,81,11411,2146960109,2147517686,2147298532,2147516388,2147085659,2146918070,2147724489,2147122450,3526,-1,8,37474
1365690422,5804,1027.0999755859375000,230.9844055175781200,537.6552124023438000,6.3563327789306640,36.7897491455078100,51,103,97,78,81,11410,2146963501,2147518756,2147300644,2147518226,2147085366,2146918802,2147725348,2147121243,3500,0,8,38773
1365694022,5807,1020.3400268554688000,231.7449951171875000,538.9666748046875000,6.3152828216552730,36.7720909118652340,52,101,97,79,82,11387,2146957421,2147518189,2147297398,2147517257,2147085284,2146918262,2147724187,2147119122,134,0,8,22359
1365697622,5803,1031.6500244140625000,231.4120025634765600,536.6942138671875000,6.3863978385925290,36.7494583129882800,53,126,97,79,80,11406,2146962230,2147520128,2147297993,2147519058,2147088758,2146915812,2147725037,2147121097,3334,0,9,16002
1365701222,5806,1028.1999511718750000,231.8607025146484400,537.0562744140625000,6.3750710487365720,36.7322196960449200,52,100,97,79,80,11406,2146963136,2147519817,2147299062,2147516141,2147083190,2146917888,2147723602,2147121216,153,0,8,50726
1365704822,5804,1032.1800537109375000,231.5117950439453000,536.6486816406250000,6.3878231048583980,36.7431602478027340,51,107,98,80,81,11403,2146962870,2147518253,2147297371,2147516809,2147082249,2146920630,2147723163,2147122998,3480,-1,8,27226
1365708422,5806,1034.0799560546875000,231.6501007080078000,536.8892822265625000,6.3802947998046875,36.7403182983398440,52,101,108,79,81,11404,2146960365,2147515273,2147299053,2147517586,2147086080,2146915483,2147722029,2147121115,155,0,8,36538
1365712022,5807,1026.5799560546875000,234.4925994873047000,540.1627197265625000,6.2778401374816895,36.6490402221679700,53,100,96,79,82,11400,2146960850,2147518025,2147298779,2147515666,2147083547,2146916726,2147729216,2147121910,120,-1,8,25083
1365715622,5807,1021.7299804687500000,234.4163970947265600,541.1787719726562000,6.2460207939147950,36.6711807250976560,52,102,97,78,81,11401,2146961782,2147514861,2147299520,2147515693,2147085321,2146919579,2147725120,2147121417,3310,0,8,40069
1365719222,5807,1024.5899658203125000,232.4747924804687500,540.9951171875000000,6.2517738342285160,36.7703781127929700,52,104,96,79,81,11403,2146963446,2147519030,2147297334,2147516864,2147084434,2146917174,2147724269,2147121901,141,-1,8,18537
1365722822,5808,1030.1500244140625000,234.9085998535156200,541.1884155273438000,6.2457199096679690,36.6458206176757800,52,103,97,80,81,11400,2146962386,2147519844,2147296521,2147519844,2147084416,2146914688,2147719168,2147121417,313,0,8,28312
1365726422,5805,1030.5600585937500000,235.3782043457031200,540.1950073242188000,6.2768287658691410,36.6030693054199200,52,99,97,78,81,11400,2146963072,2147516937,2147298413,2147517174,2147086061,2146922185,2147726400,2147122011,2587,-1,8,36889
1365730022,5806,1029.0799560546875000,234.8766021728515600,540.2055053710938000,6.2765011787414550,36.6293601989746100,52,99,99,79,80,11401,2146962889,2147516352,2147298404,2147518628,2147082925,2146920237,2147728146,2147120640,3228,0,8,7666
1365733622,5804,1024.1500244140625000,233.6383972167968800,539.7890014648438000,6.2895407676696780,36.6874885559082000,52,104,98,79,80,11401,2146963593,2147516324,2147300096,2147514944,2147085558,2146922468,2147722870,2147119552,2428,0,8,25698
1365737222,5807,1029.0400390625000000,234.4759063720703000,539.8908081054688000,6.2863540649414060,36.6447410583496100,52,113,97,79,81,11401,2146964416,2147518043,2147296548,2147517266,2147083812,2146918528,2147725961,2147122678,3303,-1,8,6417
1365740822,5802,1031.8499755859375000,233.9080963134765600,539.7910766601562000,6.2894759178161620,36.6728401184082000,52,101,97,79,81,11401,2146961124,2147518555,2147297252,2147517138,2147084617,2146913810,2147725494,2147123446,3064,0,8,16886
1365744422,5806,1029.9699707031250000,234.0928039550781200,539.0405883789062000,6.3129711151123050,36.6498603820800800,51,121,97,79,80,11400,2146961764,2147518189,2147298331,2147515081,2147083940,2146918354,2147723072,2147119085,3244,0,8,36465
1365748022,5806,1034.5600585937500000,233.9067993164062500,538.2423706054688000,6.3379549980163570,36.6450500488281250,52,103,98,79,81,11396,2146961526,2147517933,2147298322,2147517010,2147085229,2146920301,2147723410,2147120365,3138,-1,8,41968
1365751622,5806,1038.0300292968750000,232.5823059082031200,537.4276733398438000,6.3634510040283200,36.7007217407226560,51,104,96,79,80,11397,2146961060,2147516068,2147297435,2147518363,2147088301,2146919323,2147722797,2147121920,3257,0,8,11772
1365755222,5804,1045.2600097656250000,232.6295928955078000,537.2429809570312000,6.3692297935485840,36.6945915222168000,52,101,99,80,80,11396,2146962605,2147517184,2147300160,2147520731,2147086701,2146913499,2147724809,2147126034,3031,-1,8,10512
1365758822,5806,1020.4099731445312000,225.7111968994140600,529.6522216796875000,6.6065239906311035,36.9308700561523440,52,108,97,79,81,11394,2146964022,2147521344,2147296182,2147515602,2147083465,2146917888,2147719734,2147124388,435,0,8,10552
1365762422,5807,1009.3300170898438000,223.6007995605468800,531.0153198242188000,6.5639438629150390,37.0708084106445300,52,104,100,79,80,11391,2146962459,2147515849,2147295780,2147516836,2147087305,2146917229,2147723584,2147121499,213,0,8,54271
1365766022,5809,1010.0700073242188000,223.8556976318359400,531.5844726562500000,6.5461602210998535,37.0663414001464840,52,101,100,79,81,11389,2146965229,2147516873,2147300315,2147516772,2147084644,2146917558,2147722157,2147121481,50,0,8,40525
1365769622,5806,999.0499877929688000,226.5762023925781200,533.9078979492188000,6.4735407829284670,36.9590187072753900,53,108,97,80,81,11389,2146961910,2147517924,2147293842,2147515830,2147085504,2146914925,2147725092,2147121819,3299,-1,8,56542
1365773222,5807,995.8599853515625000,229.2265930175781200,536.3234863281250000,6.3979949951171875,36.8597412109375000,52,103,97,79,81,11385,2146963766,2147517723,2147299154,2147517147,2147084827,2146914733,2147723245,2147119442,473,-1,8,54224
1365776822,5805,1002.6099853515625000,232.0319976806640600,536.7230834960938000,6.3854942321777340,36.7165298461914060,51,103,97,80,80,11384,2146963483,2147519753,2147299858,2147513728,2147084562,2146920859,2147728128,2147119561,589,0,8,24345
1365777355,5805,10.8999996185302730,231.1734008789062500,536.6962280273438000,6.3863391876220700,36.7622795104980500,51,104,97,79,81,11391,2146964681,2147518848,2147299794,2147516269,2147084617,2146916781,2147726034,2147120365,127,-1,8,22185
